Bad Axe, MI

7:05 AM EST on December 11, 2016 (GMT -0500)
Huron County Memorial

Weather History for KBAX - April, 2013

Change the Weather History Date:

Friday, April 12, 2013

  Actual Average (KP58) Record (KP58)
Temperature  
Mean Temperature 36 °F -  
Max Temperature 40 °F 47 °F 73 °F (1998)
Min Temperature 32 °F 34 °F 27 °F (2003)
Degree Days  
Heating Degree Days 29    
Moisture  
Dew Point 35 °F    
Average Humidity 98    
Maximum Humidity 100    
Minimum Humidity 89    
Precipitation  
Precipitation 0.00 in - - ()
Sea Level Pressure  
Sea Level Pressure 29.63 in    
Wind  
Wind Speed 9 mph (WSW)    
Max Wind Speed 14 mph    
Max Gust Speed 28 mph    
Visibility 7 miles    
Events Rain , Snow    
Averages and records for this station are not official NWS values.
T = Trace of Precipitation, MM = Missing Value Source: NWS Daily Summary

Daily Weather History Graph

Daily Weather History Graph

Search for Another Location

Airport or City:

Trip Planner

Search our weather history database for the weather conditions in past years. The results will help you decide how hot, cold, wet, or windy it might be!

Date:

Astronomy

Apr. 12, 2013 Rise Set
Actual Time 6:53 AM EDT 8:12 PM EDT
Civil Twilight 6:24 AM EDT 8:42 PM EDT
Nautical Twilight 5:48 AM EDT 9:18 PM EDT
Astronomical Twilight 5:10 AM EDT 9:56 PM EDT
Moon 7:58 AM EDT (4/12) 10:47 PM EDT (4/12)
Length of Visible Light 14h 18m
Length of Day
13h 18m
Waxing Crescent, 5% of the Moon is Illuminated
Apr 12
Waxing Crescent
Apr 18
First Quarter
Apr 25
Full
May 2
Last Quarter
May 9
New

Hourly Weather History & Observations

Time (EDT) Temp. Windchill Dew Point Humidity Pressure Visibility Wind Dir Wind Speed Gust Speed Precip Events Conditions
12:13 AM 32.0 °F 23.0 °F 32.0 °F 100% 29.71 in 7.0 mi East 11.5 mph 27.6 mph N/A Snow Light Snow
12:34 AM 32.0 °F 22.1 °F 32.0 °F 100% 29.70 in 7.0 mi East 13.8 mph 21.9 mph N/A Snow Light Snow
12:53 AM 32.2 °F 25.0 °F 32.0 °F 99% 29.71 in 10.0 mi East 8.1 mph 17.3 mph N/A Snow Light Snow
1:13 AM 32.4 °F 24.6 °F 32.4 °F 100% 29.69 in 3.0 mi East 9.2 mph 17.3 mph N/A Snow Light Snow
1:34 AM 32.4 °F 24.0 °F 32.4 °F 100% 29.67 in 5.0 mi East 10.4 mph 21.9 mph N/A Snow Light Snow
1:53 AM 32.4 °F 23.5 °F 32.4 °F 100% 29.66 in 5.0 mi East 11.5 mph 17.3 mph N/A Snow Light Snow
2:13 AM 32.4 °F 23.0 °F 32.4 °F 100% 29.64 in 5.0 mi East 12.7 mph 18.4 mph N/A Snow Light Snow
2:34 AM 32.5 °F 25.5 °F 32.5 °F 100% 29.64 in 5.0 mi ENE 8.1 mph - N/A Snow Light Snow
2:53 AM 32.5 °F 28.1 °F 32.5 °F 100% 29.64 in 4.0 mi ENE 4.6 mph - N/A Snow Light Snow
3:13 AM 32.5 °F 28.1 °F 32.5 °F 100% 29.63 in 3.0 mi ENE 4.6 mph - N/A   Overcast
3:34 AM 32.5 °F 28.1 °F 32.5 °F 100% 29.64 in 3.0 mi NE 4.6 mph - N/A Snow Light Snow
3:53 AM 32.5 °F 28.1 °F 32.5 °F 100% 29.64 in 2.5 mi NNE 4.6 mph - N/A Snow Light Snow
4:13 AM 32.4 °F 26.9 °F 32.4 °F 100% 29.63 in 2.0 mi North 5.8 mph - N/A Snow Light Snow
4:34 AM 32.4 °F 27.9 °F 32.4 °F 100% 29.64 in 4.0 mi North 4.6 mph - N/A   Overcast
4:53 AM 32.4 °F 26.9 °F 32.4 °F 100% 29.62 in 3.0 mi North 5.8 mph - N/A Snow Light Snow
5:13 AM 32.4 °F 26.9 °F 32.4 °F 100% 29.62 in 7.0 mi NNE 5.8 mph - N/A   Overcast
5:33 AM 32.2 °F 26.7 °F 32.2 °F 100% 29.60 in 4.0 mi NNE 5.8 mph - N/A Snow Light Snow
5:53 AM 32.4 °F 27.9 °F 32.4 °F 100% 29.61 in 4.0 mi North 4.6 mph - N/A Snow Light Snow
6:13 AM 32.4 °F 23.5 °F 32.4 °F 100% 29.58 in 3.0 mi ENE 11.5 mph - N/A Snow Light Snow
6:33 AM 32.5 °F 26.2 °F 32.5 °F 100% 29.59 in 5.0 mi NE 6.9 mph - N/A Snow Light Snow
6:53 AM 32.5 °F 26.2 °F 32.5 °F 100% 29.58 in 4.0 mi NE 6.9 mph - N/A   Overcast
7:14 AM 32.5 °F 24.2 °F 32.5 °F 100% 29.55 in 4.0 mi ENE 10.4 mph - N/A   Overcast
7:33 AM 32.5 °F 25.5 °F 32.5 °F 100% 29.55 in 5.0 mi NE 8.1 mph - N/A   Overcast
7:53 AM 32.5 °F 24.2 °F 32.5 °F 100% 29.54 in 7.0 mi ENE 10.4 mph - N/A Snow Light Snow
8:14 AM 32.9 °F 25.3 °F 32.9 °F 100% 29.54 in 7.0 mi ENE 9.2 mph - N/A   Overcast
8:33 AM 32.9 °F 27.5 °F 32.9 °F 100% 29.55 in 10.0 mi ENE 5.8 mph - N/A   Overcast
8:53 AM 32.9 °F 27.5 °F 32.9 °F 100% 29.55 in 10.0 mi ENE 5.8 mph - N/A   Overcast
9:14 AM 33.1 °F 28.7 °F 33.1 °F 100% 29.56 in 10.0 mi East 4.6 mph - N/A   Overcast
9:33 AM 33.3 °F 28.9 °F 33.3 °F 100% 29.55 in 10.0 mi East 4.6 mph - N/A   Overcast
9:52 AM 33.8 °F 30.8 °F 33.8 °F 100% 29.55 in 10.0 mi East 3.5 mph - N/A   Overcast
10:14 AM 34.0 °F - 34.0 °F 100% 29.54 in 7.0 mi Calm Calm - N/A   Overcast
10:54 AM 34.7 °F 31.8 °F 34.7 °F 100% 29.56 in 5.0 mi ESE 3.5 mph - N/A   Overcast
11:14 AM 35.1 °F 31.0 °F 35.1 °F 100% 29.56 in 7.0 mi SSE 4.6 mph - N/A   Overcast
11:33 AM 35.6 °F 32.8 °F 35.6 °F 100% 29.58 in 7.0 mi South 3.5 mph - N/A   Overcast
11:54 AM 36.0 °F 31.1 °F 36.0 °F 100% 29.58 in 2.5 mi SW 5.8 mph - N/A   Overcast
12:13 PM 36.1 °F 30.6 °F 36.1 °F 100% 29.58 in 2.5 mi WSW 6.9 mph - N/A   Overcast
12:33 PM 36.5 °F 30.3 °F 36.5 °F 100% 29.58 in 5.0 mi WSW 8.1 mph - N/A   Overcast
12:54 PM 37.0 °F 31.6 °F 37.0 °F 100% 29.58 in 10.0 mi WSW 6.9 mph - N/A   Overcast
1:13 PM 37.4 °F 30.8 °F 37.4 °F 100% 29.59 in 10.0 mi WSW 9.2 mph - N/A   Overcast
1:33 PM 37.6 °F 31.0 °F 37.6 °F 100% 29.59 in 10.0 mi West 9.2 mph - N/A   Overcast
1:54 PM 37.9 °F 29.6 °F 37.8 °F 99% 29.59 in 10.0 mi West 13.8 mph - N/A   Overcast
2:13 PM 38.3 °F 30.1 °F 37.4 °F 97% 29.59 in 10.0 mi WSW 13.8 mph 17.3 mph N/A   Overcast
2:33 PM 38.7 °F 30.5 °F 37.6 °F 96% 29.60 in 10.0 mi West 13.8 mph 19.6 mph N/A   Overcast
2:54 PM 38.7 °F 30.5 °F 37.0 °F 94% 29.61 in 10.0 mi WSW 13.8 mph - N/A   Overcast
3:13 PM 38.5 °F 30.3 °F 36.7 °F 93% 29.62 in 10.0 mi West 13.8 mph - N/A   Overcast
3:33 PM 38.8 °F 30.8 °F 36.9 °F 93% 29.62 in 10.0 mi West 13.8 mph - N/A   Overcast
3:54 PM 39.0 °F 34.0 °F 37.0 °F 93% 29.62 in 10.0 mi West 6.9 mph - N/A   Overcast
4:13 PM 40.3 °F 34.4 °F 38.1 °F 92% 29.62 in 10.0 mi West 9.2 mph - N/A   Overcast
4:34 PM 40.1 °F 33.6 °F 37.2 °F 89% 29.63 in 10.0 mi West 10.4 mph - N/A   Overcast
4:54 PM 39.2 °F 33.0 °F 36.5 °F 90% 29.63 in 10.0 mi West 9.2 mph - N/A   Overcast
5:13 PM 38.7 °F 33.6 °F 36.9 °F 93% 29.64 in 5.0 mi West 6.9 mph - N/A   Overcast
5:34 PM 38.3 °F 32.5 °F 37.0 °F 95% 29.65 in 5.0 mi WSW 8.1 mph - N/A   Overcast
5:54 PM 38.7 °F 33.6 °F 37.8 °F 97% 29.65 in 10.0 mi WSW 6.9 mph - N/A   Overcast
6:13 PM 38.8 °F 32.6 °F 37.9 °F 97% 29.65 in 10.0 mi WSW 9.2 mph - N/A   Overcast
6:34 PM 39.2 °F 33.0 °F 37.6 °F 94% 29.66 in 10.0 mi SW 9.2 mph - N/A   Overcast
6:54 PM 39.4 °F 33.8 °F 37.4 °F 93% 29.67 in 10.0 mi SW 8.1 mph - N/A   Overcast
7:13 PM 39.6 °F 32.5 °F 36.9 °F 90% 29.67 in 10.0 mi WSW 11.5 mph - N/A   Overcast
7:34 PM 38.8 °F 33.8 °F 36.5 °F 91% 29.67 in 7.0 mi WSW 6.9 mph - N/A   Overcast
7:54 PM 39.0 °F 32.8 °F 36.5 °F 91% 29.67 in 4.0 mi WSW 9.2 mph - N/A   Overcast
8:13 PM 38.8 °F 32.1 °F 36.7 °F 92% 29.67 in 10.0 mi SW 10.4 mph - N/A   Overcast
8:34 PM 38.7 °F 32.4 °F 36.7 °F 93% 29.68 in 10.0 mi SW 9.2 mph - N/A   Overcast
8:54 PM 38.7 °F 31.8 °F 37.0 °F 94% 29.68 in 7.0 mi SW 10.4 mph - N/A   Overcast
9:13 PM 38.5 °F 31.1 °F 37.0 °F 95% 29.68 in 7.0 mi SW 11.5 mph - N/A   Overcast
9:34 PM 38.5 °F 31.6 °F 37.4 °F 96% 29.69 in 7.0 mi SW 10.4 mph - N/A   Overcast
9:53 PM 38.5 °F 30.7 °F 37.4 °F 96% 29.69 in 10.0 mi SW 12.7 mph 17.3 mph N/A   Overcast
10:14 PM 38.5 °F 31.6 °F 37.4 °F 96% 29.69 in 7.0 mi SW 10.4 mph 17.3 mph N/A   Overcast
10:34 PM 38.5 °F 32.1 °F 37.6 °F 97% 29.69 in 5.0 mi SW 9.2 mph 17.3 mph N/A Rain Light Rain
10:53 PM 38.3 °F 31.9 °F 37.6 °F 97% 29.70 in 7.0 mi WSW 9.2 mph - N/A   Overcast
11:14 PM 38.5 °F 31.1 °F 37.8 °F 97% 29.70 in 10.0 mi WSW 11.5 mph 17.3 mph N/A   Overcast
11:33 PM 38.5 °F 30.7 °F 37.6 °F 97% 29.69 in 10.0 mi WSW 12.7 mph - N/A   Overcast
11:53 PM 38.3 °F 30.5 °F 37.4 °F 97% 29.70 in 10.0 mi West 12.7 mph 19.6 mph N/A   Overcast